Вернуться в каталог

ESSA 1

OT-3

АктивенПогодаPO
NORAD 1982·PAYLOAD·🇺🇸 United States

Запущен Feb 3, 1966 с Cape Canaveral Space Force Station

Loading…

Ближайшие Пролёты (ближайшие 24 часа)

TLE

СвежийSource: Space-Track

Эпоха: Sep 13, 2026, 15:02 UTC

1 01982U 66008A   26256.62675712  .00000063  00000-0  26986-4 0  9991
2 01982  97.8069 281.8938 0079518 189.5851 170.3831 14.48369583170740

Отслеживайте ESSA 1 в реальном времени с AllMySat

Download on the App Store